Regional Weather Roundup
Issued by NWS

Home | Current Version | Previous Version | Text Only | Print | Product List | Glossary On
Versions: 1 2 3 4 5 6 7 8 9 10 11 12 13 14 15 16 17 18 19 20 21 22 23 24 25 26 27 28 29 30 31 32 33 34 35 36 37 38 39 40 41 42 43 44 45 46 47 48 49 50
000
ASUS43 KDTX 281210
RWRMI
MICHIGAN HOURLY REGIONAL WEATHER ROUNDUP
NATIONAL WEATHER SERVICE DETROIT/PONTIAC MI
800 AM EDT SAT MAY 28 2016

NOTE: "FAIR" INDICATES FEW OR NO CLOUDS BELOW 12,000 FEET WITH NO
SIGNIFICANT WEATHER AND/OR OBSTRUCTION TO VISIBILITY.

MIZ047>049-052>055-059>063-066>070-074>076-081>083-281300-
SOUTHEAST LOWER MICHIGAN

CITY           SKY/WX    TMP DP  RH WIND       PRES   REMARKS
ADRIAN         SUNNY     71  63  75 S3        30.03R
6HR MIN TEMP:  64; 6HR MAX TEMP:  72;

ALMA           MOSUNNY   72  64  76 S13       29.97S
6HR MIN TEMP:  64; 6HR MAX TEMP:  72;

ANN ARBOR      MOSUNNY   69  65  86 CALM      30.02S
BAD AXE        MOSUNNY   73  63  72 SW6       30.01S
CARO           SUNNY     73  64  72 S5        30.00S
DETROIT CITY   SUNNY     72  63  73 S3        30.03R
6HR MIN TEMP:  67; 6HR MAX TEMP:  72;

DETROIT        PTSUNNY   72  63  73 S5        30.04R
6HR MIN TEMP:  66; 6HR MAX TEMP:  72;

FLINT          SUNNY     77  63  61 S8        30.01R
6HR MIN TEMP:  70; 6HR MAX TEMP:  77;

GROSSE ILE     MOSUNNY   72  64  78 SE5       30.02S
HILLSDALE      PTSUNNY   71  61  71 S7        30.02S
6HR MIN TEMP:  67; 6HR MAX TEMP:  73;

HOWELL         SUNNY     73  64  73 S7        30.01S

CITY           SKY/WX    TMP DP  RH WIND       PRES   REMARKS
JACKSON        MOSUNNY   72  64  76 S7        30.01R
6HR MIN TEMP:  67; 6HR MAX TEMP:  73;

LAMBERTVILLE   CLOUDY    73  65  75 CALM      30.03S
6HR MIN TEMP:  66; 6HR MAX TEMP:  74;

LANSING        PTSUNNY   73  63  70 S9        29.99S
6HR MIN TEMP:  67; 6HR MAX TEMP:  73;

LAPEER         FAIR      74  62  66 SW5       30.02S
6HR MIN TEMP:  64; 6HR MAX TEMP:  74;

MASON          MOSUNNY   72  63  74 S9        30.00S
MONROE         MOSUNNY   71  66  83 S10       30.02S
6HR MIN TEMP:  63; 6HR MAX TEMP:  71;

MT. CLEMENS    PTSUNNY   70  68  93 SE2       30.02S
6HR MIN TEMP:  61; 6HR MAX TEMP:  70;

PONTIAC        MOSUNNY   73  63  70 S6        30.02S
6HR MIN TEMP:  63; 6HR MAX TEMP:  73;

PORT HOPE        N/A     73  63  70 SW6       29.99R
6HR MIN TEMP:  67; 6HR MAX TEMP:  73;

PORT HURON     SUNNY     70  64  83 CALM      30.04R
TRI CITIES     SUNNY     74  63  68 S6        29.99R
6HR MIN TEMP:  71; 6HR MAX TEMP:  77;

MIDLAND        FAIR      72  63  74 S5        29.97S
6HR MIN TEMP:  63; 6HR MAX TEMP:  73;

TROY           SUNNY     72  64  76 CALM      30.04F
SAGINAW HB     SUNNY     73  63  68 S7        29.99R
$$
MIZ043>046-050>051-056>058-064>065-071>073-077>080-281300-
SOUTHWEST LOWER MICHIGAN

CITY           SKY/WX    TMP DP  RH WIND       PRES   REMARKS
BATTLE CREEK   CLOUDY    69  65  86 S8        29.99R
6HR MIN TEMP:  67; 6HR MAX TEMP:  73; 6HR PCP: TRACE;

BENTON HARBOR  CLOUDY    74  63  68 S12G20    29.92S
6HR MIN TEMP:  69; 6HR MAX TEMP:  74;

BIG RAPIDS     CLOUDY    67  67  98 SE3       29.94S
6HR MIN TEMP:  66; 6HR MAX TEMP:  68;

COLDWATER      CLOUDY    72  64  75 S6        30.00R
6HR MIN TEMP:  68; 6HR MAX TEMP:  73;

FREMONT        FAIR      68  68 100 SE5       29.92S
HOLLAND        CLOUDY    70  63  78 S9        29.93R
6HR MIN TEMP:  69; 6HR MAX TEMP:  70;

GRAND RAPIDS   CLOUDY    71  63  75 S8        29.95S
6HR MIN TEMP:  68; 6HR MAX TEMP:  71;

IONIA          FAIR      69  61  75 S8        29.96S
6HR MIN TEMP:  65; 6HR MAX TEMP:  73;

KALAMAZOO      CLOUDY    73  63  70 S8        29.97R
6HR MIN TEMP:  70; 6HR MAX TEMP:  74;

LUDINGTON      CLOUDY    68  65  90 SE5       29.89F
6HR MIN TEMP:  68; 6HR MAX TEMP:  70;

MARSHALL       CLOUDY    71  65  81 S5        29.99S
6HR MIN TEMP:  69; 6HR MAX TEMP:  73;

MOUNT PLEASANT SUNNY     71  65  82 S6        29.96S
6HR MIN TEMP:  63; 6HR MAX TEMP:  71;

MUSKEGON       CLOUDY    72  63  73 SE9       29.90F
6HR MIN TEMP:  69; 6HR MAX TEMP:  73; 6HR PCP: TRACE;

SOUTH HAVEN    CLOUDY    72  63  73 S8        29.93S
$$
MIZ016>042-281300-
NORTHERN LOWER MICHIGAN

CITY           SKY/WX    TMP DP  RH WIND       PRES   REMARKS
ALPENA         MOSUNNY   64  61  90 SE6       29.98S
6HR MIN TEMP:  62; 6HR MAX TEMP:  64; 6HR PCP:  0.30;

BEAVER ISLAND  CLOUDY    66  65  95 SE6       29.89S
6HR MIN TEMP:  62; 6HR MAX TEMP:  66;

BELLAIRE       CLOUDY    72  65  78 S6        29.92S
6HR MIN TEMP:  67; 6HR MAX TEMP:  72;

CADILLAC       CLOUDY    69  64  86 S6        29.94F
CHARLEVOIX     MOSUNNY   70  66  86 S6        29.94R
FRANKFORT      CLOUDY    70  65  84 S9        29.88F
GAYLORD        MOSUNNY   69  64  84 S10       29.96S
6HR MIN TEMP:  67; 6HR MAX TEMP:  69; 6HR PCP: TRACE;

GRAYLING       CLOUDY    69  66  91 CALM      29.97S
6HR MIN TEMP:  66; 6HR MAX TEMP:  69;

HARBOR SPRINGS MOSUNNY   70  65  83 CALM      29.92R
HOUGHTON LAKE  CLOUDY    68  66  93 SE3       29.97S
6HR MIN TEMP:  64; 6HR MAX TEMP:  68;

MANISTEE       MOSUNNY   68  63  83 SE8       29.90F
OSCODA         SUNNY     67  60  78 CALM      29.98S
6HR MIN TEMP:  63; 6HR MAX TEMP:  67;

PELLSTON       CLOUDY    68  65  90 SE6       29.92S
6HR MIN TEMP:  66; 6HR MAX TEMP:  68; 6HR PCP:  0.04;

ROGERS CITY    MOSUNNY   64  62  91 CALM      29.97S
TRAVERSE CITY  CLOUDY    71  65  81 CALM      29.89S
6HR MIN TEMP:  70; 6HR MAX TEMP:  71;

$$
MIZ007>008-015-281300-
EASTERN UPPER MICHIGAN

CITY           SKY/WX    TMP DP  RH WIND       PRES   REMARKS
KINROSS          N/A     61  61 100 SE13      29.93S
6HR MIN TEMP:  61; 6HR MAX TEMP:  61;

MACKINAC ISLAN FOG       58  58 100 SE7       29.92S VSB 1/2
6HR MIN TEMP:  52; 6HR MAX TEMP:  58; 6HR PCP:  0.06;

NEWBERRY       LGT RAIN  65  64  97 S9        29.88S
6HR MIN TEMP:  62; 6HR MAX TEMP:  65; 6HR PCP:  0.05;

S. S. MARIE    LGT RAIN  61  58  90 SE8       29.93S
6HR MIN TEMP:  60; 6HR MAX TEMP:  63; 6HR PCP:  0.17;

MUNISING         N/A     63  62  97 S7G16     29.82S
6HR MIN TEMP:  63; 6HR MAX TEMP:  65; 6HR PCP:  0.21;

$$
MIZ004>006-011>014-085-281300-
CENTRAL UPPER MICHIGAN

CITY           SKY/WX    TMP DP  RH WIND       PRES   REMARKS
MANISTIQUE     LGT RAIN  58  57  97 S3        29.87R
6HR MIN TEMP:  58; 6HR MAX TEMP:  61; 6HR PCP:  0.30;

ESCANABA       CLOUDY    59  57  94 S5        29.84R
6HR MIN TEMP:  57; 6HR MAX TEMP:  61; 6HR PCP:  0.09;

MENOMINEE      CLOUDY    62  61  96 S6        29.82F FOG
6HR MIN TEMP:  60; 6HR MAX TEMP:  62;

SAWYER-GWINN   FOG       63  61  94 S7        29.83F VSB 1/4
$$
MIZ001>003-009>011-084-281300-
WESTERN UPPER MICHIGAN

CITY           SKY/WX    TMP DP  RH WIND       PRES   REMARKS
IRON MOUNTAIN  FOG       62  62 100 SE6       29.81R VSB 1/4
6HR MIN TEMP:  62; 6HR MAX TEMP:  63; 6HR PCP: TRACE;

HOUGHTON       FOG       54  52  93 CALM      29.79S VSB<1/4
6HR MIN TEMP:  51; 6HR MAX TEMP:  54;

COPPER HARBOR    N/A     57  57 100 SW9       29.78F
6HR MIN TEMP:  47; 6HR MAX TEMP:  60;

IRONWOOD       CLOUDY    63  63 100 CALM      29.75S
6HR MIN TEMP:  59; 6HR MAX TEMP:  64;

$$

ABBREVIATIONS USED IN REMARKS
   TC - TEMPERATURE IN CELSIUS
  WCI - WIND CHILL INDEX
   HX - HEAT INDEX
  VSB - VISIBILITY




USA.gov is the U.S. government's official web portal to all federal, state and local government web resources and services.